| time (UTC) | temp F | wind direction | speed MPH | gust MPH | rain 1hr in | rain 24hr in | rain mn in | humidity % | barometer mb |
| 20260904140040 | 81 | 259 | 5.0 | 10.0 | 0.00 | 0.00 | 0.00 | 82 | 1016.7 |
| 20260904134542 | 80 | 270 | 2.0 | 7.0 | 0.00 | 0.00 | 0.00 | 87 | 1016.5 |
| 20260904133041 | 77 | 246 | 2.0 | 4.0 | 0.00 | 0.00 | 0.00 | 91 | 1016.7 |
| 20260904131525 | 75 | 173 | 0.0 | 2.0 | 0.00 | 0.00 | 0.00 | 95 | 1016.7 |
| 20260904130022 | 74 | 106 | 0.0 | 0.0 | 0.00 | 0.00 | 0.00 | 97 | 1016.8 |
| 20260904124518 | 73 | 106 | 0.0 | 0.0 | 0.00 | 0.00 | 0.00 | 97 | 1016.9 |
| 20260904123016 | 72 | 106 | 0.0 | 0.0 | 0.00 | 0.00 | 0.00 | 97 | 1016.6 |
| 20260904121512 | 71 | 106 | 0.0 | 0.0 | 0.00 | 0.00 | 0.00 | 97 | 1016.6 |
| 20260904120009 | 70 | 106 | 0.0 | 2.0 | 0.00 | 0.00 | 0.00 | 97 | 1016.3 |
| 20260904114507 | 69 | 106 | 0.0 | 0.0 | 0.00 | 0.00 | 0.00 | 97 | 1016.1 |
| 20260904113008 | 69 | 106 | 0.0 | 0.0 | 0.00 | 0.00 | 0.00 | 97 | 1016.0 |
| 20260904111507 | 69 | 106 | 0.0 | 0.0 | 0.00 | 0.00 | 0.00 | 97 | 1015.6 |
| 20260904110007 | 69 | 106 | 0.0 | 0.0 | 0.00 | 0.00 | 0.00 | 97 | 1015.5 |
| 20260904104502 | 69 | 106 | 0.0 | 0.0 | 0.00 | 0.00 | 0.00 | 97 | 1015.4 |
| 20260904103002 | 69 | 106 | 0.0 | 0.0 | 0.00 | 0.00 | 0.00 | 96 | 1015.3 |
| 20260904101501 | 69 | 106 | 0.0 | 0.0 | 0.00 | 0.00 | 0.00 | 97 | 1015.2 |
| 20260904100001 | 69 | 106 | 0.0 | 0.0 | 0.00 | 0.00 | 0.00 | 96 | 1015.3 |
| 20260904094616 | 69 | 106 | 0.0 | 0.0 | 0.00 | 0.00 | 0.00 | 96 | 1015.3 |
| 20260904093105 | 69 | 106 | 0.0 | 0.0 | 0.00 | 0.00 | 0.00 | 97 | 1015.3 |
| 20260904091600 | 69 | 106 | 0.0 | 0.0 | 0.00 | 0.00 | 0.00 | 96 | 1015.2 |
| 20260904090059 | 69 | 106 | 0.0 | 0.0 | 0.00 | 0.00 | 0.00 | 96 | 1015.3 |
| 20260904084558 | 69 | 106 | 0.0 | 0.0 | 0.00 | 0.00 | 0.00 | 96 | 1015.1 |
| 20260904083101 | 69 | 106 | 0.0 | 0.0 | 0.00 | 0.00 | 0.00 | 96 | 1015.3 |
| 20260904081556 | 69 | 106 | 0.0 | 0.0 | 0.00 | 0.00 | 0.00 | 96 | 1015.3 |
| 20260904080116 | 70 | 106 | 0.0 | 0.0 | 0.00 | 0.00 | 0.00 | 96 | 1015.4 |
| 20260904074605 | 69 | 106 | 0.0 | 0.0 | 0.00 | 0.00 | 0.00 | 96 | 1015.5 |
| 20260904073051 | 69 | 106 | 0.0 | 0.0 | 0.00 | 0.00 | 0.00 | 96 | 1015.7 |
| 20260904071552 | 69 | 106 | 0.0 | 0.0 | 0.00 | 0.00 | 0.00 | 96 | 1015.9 |
| 20260904070047 | 70 | 106 | 0.0 | 0.0 | 0.00 | 0.00 | 0.00 | 95 | 1016.1 |
| 20260904064544 | 70 | 106 | 0.0 | 0.0 | 0.00 | 0.00 | 0.00 | 95 | 1016.1 |
| 20260904063048 | 70 | 106 | 0.0 | 0.0 | 0.00 | 0.00 | 0.00 | 95 | 1016.2 |
| 20260904061543 | 70 | 106 | 0.0 | 0.0 | 0.00 | 0.00 | 0.00 | 95 | 1016.2 |
| 20260904060109 | 70 | 106 | 0.0 | 0.0 | 0.00 | 0.00 | 0.00 | 95 | 1016.4 |
| 20260904054541 | 70 | 106 | 0.0 | 0.0 | 0.00 | 0.00 | 0.00 | 95 | 1016.4 |
| 20260904053126 | 71 | 106 | 0.0 | 0.0 | 0.00 | 0.00 | 0.00 | 95 | 1016.4 |
| 20260904051559 | 71 | 106 | 0.0 | 0.0 | 0.00 | 0.00 | 0.00 | 94 | 1016.4 |
| 20260904050037 | 71 | 106 | 0.0 | 0.0 | 0.00 | 0.00 | 0.00 | 94 | 1016.4 |
| 20260904044549 | 71 | 106 | 0.0 | 0.0 | 0.00 | 0.00 | 0.00 | 94 | 1016.3 |
| 20260904043033 | 72 | 106 | 0.0 | 0.0 | 0.00 | 0.00 | 0.00 | 93 | 1016.1 |
| 20260904041531 | 72 | 106 | 0.0 | 0.0 | 0.00 | 0.00 | 0.00 | 93 | 1016.2 |
| 20260904040026 | 72 | 106 | 0.0 | 1.0 | 0.00 | 0.00 | 0.00 | 93 | 1016.1 |
| 20260904034525 | 72 | 106 | 0.0 | 1.0 | 0.00 | 0.00 | 0.00 | 92 | 1016.0 |
| 20260904033025 | 73 | 106 | 0.0 | 0.0 | 0.00 | 0.00 | 0.00 | 91 | 1016.0 |
| 20260904031524 | 74 | 106 | 0.0 | 1.0 | 0.00 | 0.00 | 0.00 | 90 | 1016.3 |
| 20260904030025 | 74 | 105 | 0.0 | 2.0 | 0.00 | 0.00 | 0.00 | 89 | 1016.3 |
| 20260904024531 | 75 | 95 | 0.0 | 3.0 | 0.00 | 0.00 | 0.00 | 88 | 1016.6 |
| 20260904023023 | 77 | 50 | 0.0 | 5.0 | 0.00 | 0.00 | 0.00 | 86 | 1016.6 |
| 20260904021524 | 78 | 60 | 2.0 | 8.0 | 0.00 | 0.00 | 0.00 | 86 | 1016.5 |
| 20260904020023 | 79 | 334 | 1.0 | 4.0 | 0.00 | 0.00 | 0.00 | 87 | 1016.5 |
| 20260904014522 | 77 | 315 | 3.0 | 10.0 | 0.00 | 0.00 | 0.00 | 90 | 1016.5 |
| 20260904013021 | 76 | 207 | 0.0 | 1.0 | 0.00 | 0.00 | 0.00 | 91 | 1016.0 |
| 20260904011521 | 77 | 207 | 0.0 | 0.0 | 0.00 | 0.00 | 0.00 | 90 | 1015.8 |
| 20260904010021 | 78 | 207 | 0.0 | 2.0 | 0.00 | 0.00 | 0.00 | 88 | 1015.7 |
| 20260904004520 | 79 | 207 | 0.0 | 0.0 | 0.00 | 0.00 | 0.00 | 87 | 1015.7 |
| 20260904003019 | 80 | 207 | 0.0 | 0.0 | 0.00 | 0.00 | 0.00 | 86 | 1015.5 |
| 20260904001526 | 82 | 207 | 0.0 | 0.0 | 0.00 | 0.00 | 0.00 | 84 | 1015.6 |
| 20260904000019 | 83 | 207 | 0.0 | 1.0 | 0.00 | 0.00 | 0.00 | 81 | 1015.6 |
| 20260903234518 | 86 | 207 | 0.0 | 1.0 | 0.00 | 0.00 | 0.00 | 76 | 1015.6 |
| 20260903233017 | 88 | 215 | 0.0 | 3.0 | 0.00 | 0.00 | 0.00 | 70 | 1015.4 |
| 20260903231517 | 89 | 215 | 2.0 | 7.0 | 0.00 | 0.00 | 0.00 | 69 | 1015.1 |
| 20260903230019 | 89 | 205 | 3.0 | 5.0 | 0.00 | 0.00 | 0.00 | 66 | 1015.1 |
| 20260903224515 | 90 | 216 | 3.0 | 5.0 | 0.00 | 0.00 | 0.00 | 66 | 1015.1 |
| 20260903223024 | 90 | 216 | 2.0 | 5.0 | 0.00 | 0.00 | 0.00 | 65 | 1015.2 |
| 20260903221515 | 91 | 214 | 3.0 | 6.0 | 0.00 | 0.00 | 0.00 | 64 | 1015.0 |
| 20260903220016 | 91 | 244 | 2.0 | 10.0 | 0.00 | 0.00 | 0.00 | 64 | 1015.0 |
| 20260903214513 | 91 | 251 | 2.0 | 12.0 | 0.00 | 0.00 | 0.00 | 62 | 1014.8 |
| 20260903213020 | 91 | 262 | 3.0 | 9.0 | 0.00 | 0.00 | 0.00 | 63 | 1014.8 |
| 20260903211513 | 91 | 240 | 5.0 | 12.0 | 0.00 | 0.00 | 0.00 | 60 | 1014.7 |
| 20260903210012 | 91 | 204 | 6.0 | 10.0 | 0.00 | 0.00 | 0.00 | 60 | 1014.8 |
| 20260903204510 | 92 | 211 | 5.0 | 9.0 | 0.00 | 0.00 | 0.00 | 61 | 1014.8 |
| 20260903203023 | 92 | 254 | 6.0 | 11.0 | 0.00 | 0.00 | 0.00 | 59 | 1014.8 |
| 20260903201509 | 92 | 257 | 7.0 | 12.0 | 0.00 | 0.00 | 0.00 | 59 | 1014.9 |
| 20260903200007 | 92 | 226 | 7.0 | 12.0 | 0.00 | 0.00 | 0.00 | 59 | 1015.3 |
| 20260903194503 | 92 | 221 | 5.0 | 10.0 | 0.00 | 0.00 | 0.00 | 61 | 1015.6 |
| 20260903193100 | 92 | 251 | 8.0 | 14.0 | 0.00 | 0.00 | 0.00 | 60 | 1015.9 |
| 20260903191558 | 92 | 235 | 5.0 | 12.0 | 0.00 | 0.00 | 0.00 | 60 | 1016.2 |
| 20260903184556 | 92 | 205 | 4.0 | 11.0 | 0.00 | 0.00 | 0.00 | 60 | 1016.4 |
| 20260903183054 | 91 | 207 | 6.0 | 10.0 | 0.00 | 0.00 | 0.00 | 60 | 1016.4 |
| 20260903181555 | 91 | 261 | 9.0 | 12.0 | 0.00 | 0.00 | 0.00 | 60 | 1016.4 |
| 20260903180053 | 91 | 251 | 5.0 | 11.0 | 0.00 | 0.00 | 0.00 | 60 | 1016.4 |
| 20260903174551 | 91 | 213 | 7.0 | 11.0 | 0.00 | 0.00 | 0.00 | 61 | 1016.7 |
| 20260903173049 | 90 | 209 | 7.0 | 12.0 | 0.00 | 0.00 | 0.00 | 62 | 1016.7 |
| 20260903171546 | 90 | 276 | 7.0 | 11.0 | 0.00 | 0.00 | 0.00 | 63 | 1016.8 |
| 20260903170050 | 89 | 294 | 6.0 | 13.0 | 0.00 | 0.00 | 0.00 | 62 | 1016.9 |
| 20260903164542 | 89 | 239 | 6.0 | 13.0 | 0.00 | 0.00 | 0.00 | 64 | 1017.0 |
| 20260903163042 | 89 | 266 | 8.0 | 14.0 | 0.00 | 0.00 | 0.00 | 65 | 1017.3 |
| 20260903161537 | 89 | 282 | 7.0 | 11.0 | 0.00 | 0.00 | 0.00 | 67 | 1017.3 |
| 20260903160041 | 88 | 254 | 8.0 | 12.0 | 0.00 | 0.00 | 0.00 | 67 | 1017.4 |
| 20260903154529 | 88 | 234 | 5.0 | 11.0 | 0.00 | 0.00 | 0.00 | 69 | 1017.4 |
| 20260903153025 | 87 | 247 | 4.0 | 10.0 | 0.00 | 0.00 | 0.00 | 71 | 1017.4 |
| 20260903151521 | 86 | 315 | 5.0 | 11.0 | 0.00 | 0.00 | 0.00 | 71 | 1017.2 |
| 20260903150017 | 85 | 272 | 6.0 | 9.0 | 0.00 | 0.00 | 0.00 | 74 | 1017.1 |
| 20260903144525 | 84 | 245 | 4.0 | 12.0 | 0.00 | 0.00 | 0.00 | 76 | 1017.1 |
| 20260903143011 | 84 | 247 | 5.0 | 11.0 | 0.00 | 0.00 | 0.00 | 76 | 1017.2 |